Вернуться в каталог

STARLINK-35486

АктивенСвязьVLEO
NORAD 66253·PAYLOAD·🇺🇸 United States

Запущен Oct 29, 2025 с Cape Canaveral Space Force Station

Loading…

Ближайшие Пролёты (ближайшие 24 часа)

TLE

СвежийSource: CelesTrak SupGP

Эпоха: Sep 14, 2026, 21:03 UTC

1 66253C 25245V   26257.87756944 -.00034116  00000+0 -10972-2 0  2576
2 66253  53.1579 123.7531 0001366  80.5731 201.9257 15.31715588    17

Отслеживайте STARLINK-35486 в реальном времени с AllMySat

Download on the App Store